DW7673 Weather Reports


Display with metric or nautical units.
time (UTC)temp
F
wind
direction
speed
MPH
gust
MPH
rain 1hr
in
rain 24hr
in
rain mn
in
humidity
%
barometer
mb
20190618171302 94 142 1.0 3.0 0.00 0.00 0.00 12 1009.4
20190618170803 94 108 1.0 3.0 0.00 0.00 0.00 13 1009.7
20190618170303 93 107 0.0 1.0 0.00 0.00 0.00 13 1009.4
20190618165802 92 114 0.0 2.0 0.00 0.00 0.00 12 1009.4
20190618165302 92 81 0.0 2.0 0.00 0.00 0.00 13 1009.7
20190618164803 92 174 2.0 3.0 0.00 0.00 0.00 12 1009.4
20190618164304 91 104 1.0 3.0 0.00 0.00 0.00 13 1009.4
20190618163804 91 180 2.0 5.0 0.00 0.00 0.00 14 1009.7
20190618163303 91 131 1.0 3.0 0.00 0.00 0.00 15 1009.4
20190618162803 91 97 1.0 3.0 0.00 0.00 0.00 15 1009.4
20190618162303 91 157 1.0 2.0 0.00 0.00 0.00 15 1009.5
20190618161802 90 157 1.0 2.0 0.00 0.00 0.00 15 1009.5
20190618161303 89 167 0.0 2.0 0.00 0.00 0.00 15 1009.5
20190618160802 88 153 1.0 3.0 0.00 0.00 0.00 16 1009.5
20190618160303 88 168 1.0 3.0 0.00 0.00 0.00 16 1009.7
20190618155803 88 126 1.0 3.0 0.00 0.00 0.00 16 1009.5
20190618155303 87 176 0.0 3.0 0.00 0.00 0.00 17 1009.5
20190618154802 87 146 0.0 3.0 0.00 0.00 0.00 17 1009.6
20190618154304 87 116 1.0 3.0 0.00 0.00 0.00 16 1009.6
20190618153803 86 118 1.0 2.0 0.00 0.00 0.00 17 1009.5
20190618153303 86 101 2.0 3.0 0.00 0.00 0.00 18 1009.4
20190618152803 86 123 1.0 3.0 0.00 0.00 0.00 18 1009.4
20190618152303 86 118 0.0 2.0 0.00 0.00 0.00 17 1009.4
20190618151804 86 120 0.0 2.0 0.00 0.00 0.00 17 1009.4
20190618151304 86 133 0.0 3.0 0.00 0.00 0.00 17 1009.3
20190618150803 85 174 0.0 0.0 0.00 0.00 0.00 18 1009.2
20190618150303 84 107 1.0 2.0 0.00 0.00 0.00 17 1009.2
20190618145803 84 121 1.0 2.0 0.00 0.00 0.00 18 1009.4
20190618145303 84 109 0.0 1.0 0.00 0.00 0.00 18 1009.1
20190618144804 84 122 0.0 1.0 0.00 0.00 0.00 17 1009.1
20190618144303 84 118 0.0 1.0 0.00 0.00 0.00 19 1009.0
20190618143803 83 142 0.0 1.0 0.00 0.00 0.00 20 1008.9
20190618143303 83 120 0.0 1.0 0.00 0.00 0.00 19 1008.8
20190618142802 83 108 0.0 1.0 0.00 0.00 0.00 20 1008.8
20190618142303 83 123 0.0 1.0 0.00 0.00 0.00 21 1008.8
20190618141804 83 124 0.0 0.0 0.00 0.00 0.00 21 1008.7
20190618141303 83 126 0.0 0.0 0.00 0.00 0.00 20 1008.9
20190618140803 83 125 0.0 0.0 0.00 0.00 0.00 21 1008.6
20190618140303 82 126 0.0 0.0 0.00 0.00 0.00 22 1008.6
20190618135803 81 126 0.0 0.0 0.00 0.00 0.00 24 1008.6
20190618135303 80 126 0.0 0.0 0.00 0.00 0.00 26 1008.5
20190618134803 79 126 0.0 0.0 0.00 0.00 0.00 27 1008.7
20190618134304 77 125 0.0 0.0 0.00 0.00 0.00 29 1008.4
20190618133803 74 126 0.0 0.0 0.00 0.00 0.00 32 1008.4
20190618133303 74 127 0.0 0.0 0.00 0.00 0.00 36 1008.3
20190618132804 73 127 0.0 0.0 0.00 0.00 0.00 33 1008.3
20190618132303 72 127 0.0 0.0 0.00 0.00 0.00 34 1008.2
20190618131803 72 127 0.0 0.0 0.00 0.00 0.00 33 1008.1
20190618131303 72 127 0.0 0.0 0.00 0.00 0.00 33 1008.1
20190618130803 72 127 0.0 0.0 0.00 0.00 0.00 32 1008.0
20190618130303 72 127 0.0 0.0 0.00 0.00 0.00 30 1007.9
20190618125803 72 127 0.0 0.0 0.00 0.00 0.00 30 1007.9
20190618125304 72 127 0.0 0.0 0.00 0.00 0.00 29 1007.8
20190618124803 72 127 0.0 0.0 0.00 0.00 0.00 28 1007.7
20190618124304 72 127 0.0 0.0 0.00 0.00 0.00 28 1007.7
20190618123803 72 127 0.0 0.0 0.00 0.00 0.00 26 1007.6
20190618123303 73 127 0.0 0.0 0.00 0.00 0.00 26 1007.5
20190618122804 73 127 0.0 0.0 0.00 0.00 0.00 27 1007.4
20190618122303 73 127 0.0 0.0 0.00 0.00 0.00 26 1007.4
20190618121803 74 127 0.0 0.0 0.00 0.00 0.00 26 1007.4
20190618121303 74 127 0.0 0.0 0.00 0.00 0.00 24 1007.4
20190618120804 74 326 0.0 0.0 0.00 0.00 0.00 23 1007.4
20190618120303 74 326 0.0 0.0 0.00 0.00 0.00 24 1007.4
20190618115804 74 326 0.0 0.0 0.00 0.00 0.00 24 1007.3
20190618115303 74 326 0.0 0.0 0.00 0.00 0.00 24 1007.3
20190618114804 74 326 0.0 1.0 0.00 0.00 0.00 25 1007.3
20190618114303 73 352 0.0 1.0 0.00 0.00 0.00 26 1007.2
20190618113804 73 131 0.0 0.0 0.00 0.00 0.00 28 1007.2
20190618113304 73 131 0.0 0.0 0.00 0.00 0.00 29 1007.1
20190618112803 73 131 0.0 0.0 0.00 0.00 0.00 28 1007.1
20190618112305 73 131 0.0 0.0 0.00 0.00 0.00 28 1007.0
20190618111803 73 131 0.0 0.0 0.00 0.00 0.00 27 1007.0
20190618111304 73 131 0.0 0.0 0.00 0.00 0.00 28 1007.0
20190618110803 74 131 0.0 0.0 0.00 0.00 0.00 28 1007.0
20190618110303 74 131 0.0 0.0 0.00 0.00 0.00 28 1007.0
20190618105804 74 131 0.0 0.0 0.00 0.00 0.00 27 1006.9
20190618105305 74 131 0.0 0.0 0.00 0.00 0.00 26 1006.9
20190618104803 74 131 0.0 0.0 0.00 0.00 0.00 27 1006.8
20190618104304 74 131 0.0 0.0 0.00 0.00 0.00 29 1006.7
20190618103804 75 131 0.0 0.0 0.00 0.00 0.00 27 1006.6
20190618103304 75 131 0.0 0.0 0.00 0.00 0.00 26 1006.6
20190618102803 75 131 0.0 0.0 0.00 0.00 0.00 27 1006.6
20190618102305 75 131 0.0 0.0 0.00 0.00 0.00 27 1006.6
20190618101804 75 131 0.0 0.0 0.00 0.00 0.00 26 1006.6
20190618101304 75 131 0.0 0.0 0.00 0.00 0.00 26 1006.5
20190618100803 76 131 0.0 0.0 0.00 0.00 0.00 25 1006.6
20190618100304 77 131 0.0 0.0 0.00 0.00 0.00 25 1006.6
20190618095803 77 131 0.0 0.0 0.00 0.00 0.00 23 1006.6
20190618095306 78 131 0.0 0.0 0.00 0.00 0.00 23 1006.7
20190618094804 78 131 0.0 0.0 0.00 0.00 0.00 23 1006.5
20190618094303 78 131 0.0 0.0 0.00 0.00 0.00 23 1006.5
20190618093803 78 131 0.0 0.0 0.00 0.00 0.00 23 1006.6
20190618093303 78 131 0.0 0.0 0.00 0.00 0.00 23 1006.5
20190618092804 78 131 0.0 0.0 0.00 0.00 0.00 23 1006.5
20190618092306 78 131 0.0 0.0 0.00 0.00 0.00 23 1006.5
20190618091803 79 131 0.0 0.0 0.00 0.00 0.00 24 1006.5
20190618091304 79 110 0.0 0.0 0.00 0.00 0.00 22 1006.8
20190618090804 79 110 0.0 1.0 0.00 0.00 0.00 23 1006.5
20190618090303 79 121 0.0 0.0 0.00 0.00 0.00 23 1006.5
20190618085804 80 121 0.0 0.0 0.00 0.00 0.00 23 1006.4
20190618085305 80 124 0.0 1.0 0.00 0.00 0.00 23 1006.3
20190618084806 80 124 0.0 0.0 0.00 0.00 0.00 23 1006.3
20190618084304 80 124 0.0 1.0 0.00 0.00 0.00 24 1006.3
20190618083804 80 120 1.0 3.0 0.00 0.00 0.00 23 1006.4
20190618083303 79 150 0.0 0.0 0.00 0.00 0.00 23 1006.2
20190618082804 79 214 0.0 0.0 0.00 0.00 0.00 24 1006.1
20190618082305 80 214 0.0 0.0 0.00 0.00 0.00 22 1006.0
20190618081803 80 214 0.0 0.0 0.00 0.00 0.00 22 1006.0
20190618081304 80 214 0.0 0.0 0.00 0.00 0.00 21 1005.9
20190618080804 81 214 1.0 12.0 0.00 0.00 0.00 21 1005.9
20190618080304 81 214 0.0 0.0 0.00 0.00 0.00 21 1005.8
20190618075805 81 214 0.0 0.0 0.00 0.00 0.00 21 1005.7
20190618075306 82 214 0.0 0.0 0.00 0.00 0.00 20 1005.7
20190618074804 83 214 0.0 0.0 0.00 0.00 0.00 19 1005.7
20190618074304 83 214 0.0 0.0 0.00 0.00 0.00 19 1006.0
20190618073803 83 214 0.0 0.0 0.00 0.00 0.00 19 1005.7
20190618073304 84 214 0.0 0.0 0.00 0.00 0.00 19 1005.7
20190618072803 85 214 0.0 0.0 0.00 0.00 0.00 18 1005.7
20190618072306 85 214 0.0 0.0 0.00 0.00 0.00 17 1005.6
20190618071803 86 214 0.0 0.0 0.00 0.00 0.00 16 1005.5
20190618071303 87 214 0.0 0.0 0.00 0.00 0.00 16 1005.4
20190618070839 88 214 0.0 1.0 0.00 0.00 0.00 15 1005.4
20190618070304 88 202 0.0 0.0 0.00 0.00 0.00 14 1005.4
20190618065803 89 234 0.0 0.0 0.00 0.00 0.00 14 1005.6
20190618065303 90 259 0.0 3.0 0.00 0.00 0.00 14 1005.2
20190618064804 90 261 1.0 3.0 0.00 0.00 0.00 14 1005.2
20190618064303 89 279 1.0 3.0 0.00 0.00 0.00 14 1005.3
20190618063804 89 261 1.0 2.0 0.00 0.00 0.00 13 1005.5
20190618063304 89 243 1.0 3.0 0.00 0.00 0.00 13 1005.3
20190618062804 90 270 1.0 3.0 0.00 0.00 0.00 13 1005.4
20190618062303 90 272 0.0 1.0 0.00 0.00 0.00 13 1005.4
20190618061804 90 269 1.0 3.0 0.00 0.00 0.00 13 1005.7
20190618061303 90 260 1.0 3.0 0.00 0.00 0.00 13 1005.3
20190618060803 90 247 1.0 3.0 0.00 0.00 0.00 12 1005.3
20190618060303 90 238 1.0 5.0 0.00 0.00 0.00 13 1005.5
20190618055803 90 255 1.0 3.0 0.00 0.00 0.00 12 1005.2
20190618055303 90 282 1.0 2.0 0.00 0.00 0.00 12 1005.3
20190618054804 90 278 2.0 3.0 0.00 0.00 0.00 12 1005.5
20190618054304 90 280 1.0 2.0 0.00 0.00 0.00 13 1005.3
20190618053804 90 274 1.0 3.0 0.00 0.00 0.00 13 1005.3
20190618053304 91 272 0.0 1.0 0.00 0.00 0.00 13 1005.4
20190618052803 91 266 1.0 3.0 0.00 0.00 0.00 13 1005.4
20190618052303 91 267 2.0 6.0 0.00 0.00 0.00 13 1005.4
20190618051804 91 273 2.0 3.0 0.00 0.00 0.00 13 1005.3
20190618051303 91 269 0.0 3.0 0.00 0.00 0.00 13 1005.3
20190618050804 92 287 1.0 5.0 0.00 0.00 0.00 13 1005.2
20190618050304 92 261 2.0 5.0 0.00 0.00 0.00 13 1005.4
20190618045803 92 276 1.0 3.0 0.00 0.00 0.00 13 1005.1
20190618045304 92 288 1.0 3.0 0.00 0.00 0.00 13 1005.1
20190618044804 92 299 2.0 3.0 0.00 0.00 0.00 13 1005.3
20190618044304 92 287 2.0 5.0 0.00 0.00 0.00 13 1004.9
20190618043804 92 299 1.0 2.0 0.00 0.00 0.00 14 1005.2
20190618043304 92 290 1.0 3.0 0.00 0.00 0.00 14 1004.8
20190618042804 93 285 1.0 3.0 0.00 0.00 0.00 14 1004.7
20190618042304 93 267 2.0 5.0 0.00 0.00 0.00 14 1005.0
20190618041803 93 274 3.0 6.0 0.00 0.00 0.00 14 1004.6
20190618041304 93 273 1.0 3.0 0.00 0.00 0.00 14 1004.8
20190618040804 93 282 2.0 8.0 0.00 0.00 0.00 14 1004.4
20190618040304 93 285 3.0 6.0 0.00 0.00 0.00 14 1004.4
20190618035804 93 287 2.0 9.0 0.00 0.00 0.00 14 1004.2
20190618035303 93 285 2.0 5.0 0.00 0.00 0.00 14 1004.1
20190618034803 94 274 1.0 8.0 0.00 0.00 0.00 14 1004.3
20190618034304 94 257 3.0 8.0 0.00 0.00 0.00 14 1004.0
20190618033804 94 271 2.0 7.0 0.00 0.00 0.00 14 1004.2
20190618033304 94 262 3.0 6.0 0.00 0.00 0.00 14 1003.8
20190618032804 94 268 3.0 8.0 0.00 0.00 0.00 14 1003.9
20190618032304 95 255 3.0 8.0 0.00 0.00 0.00 14 1003.6
20190618031804 95 281 3.0 6.0 0.00 0.00 0.00 14 1003.7
20190618031304 95 258 3.0 9.0 0.00 0.00 0.00 14 1003.5
20190618030804 95 272 3.0 10.0 0.00 0.00 0.00 14 1003.6
20190618030304 95 272 5.0 8.0 0.00 0.00 0.00 14 1003.5
20190618025803 96 267 4.0 10.0 0.00 0.00 0.00 14 1003.5
20190618025304 96 277 2.0 12.0 0.00 0.00 0.00 15 1003.3
20190618024804 96 289 4.0 10.0 0.00 0.00 0.00 15 1003.2
20190618024304 96 263 5.0 12.0 0.00 0.00 0.00 15 1003.4
20190618023803 96 268 3.0 8.0 0.00 0.00 0.00 15 1003.0
20190618023304 97 287 3.0 8.0 0.00 0.00 0.00 15 1003.2
20190618022804 97 263 3.0 9.0 0.00 0.00 0.00 15 1002.9
20190618022303 97 267 2.0 7.0 0.00 0.00 0.00 15 1003.1
20190618021805 97 274 1.0 6.0 0.00 0.00 0.00 15 1002.7
20190618021304 98 242 2.0 7.0 0.00 0.00 0.00 15 1003.0
20190618020804 98 283 1.0 3.0 0.00 0.00 0.00 14 1002.7
20190618020304 98 281 1.0 3.0 0.00 0.00 0.00 14 1003.0
20190618015803 98 297 0.0 3.0 0.00 0.00 0.00 13 1002.7
20190618015304 99 312 2.0 6.0 0.00 0.00 0.00 12 1002.8
20190618014804 99 291 1.0 5.0 0.00 0.00 0.00 12 1002.5
20190618014305 99 320 1.0 6.0 0.00 0.00 0.00 12 1002.6
20190618013804 99 268 0.0 3.0 0.00 0.00 0.00 12 1002.7
20190618013304 99 308 0.0 5.0 0.00 0.00 0.00 12 1002.4
20190618012804 100 319 1.0 1.0 0.00 0.00 0.00 12 1002.6
20190618012304 100 321 2.0 5.0 0.00 0.00 0.00 11 1002.3
20190618011804 100 310 1.0 3.0 0.00 0.00 0.00 12 1002.6
20190618011304 100 331 0.0 1.0 0.00 0.00 0.00 11 1002.5
20190618010804 100 314 2.0 3.0 0.00 0.00 0.00 11 1002.3
20190618010304 100 316 0.0 3.0 0.00 0.00 0.00 11 1002.6
20190618005804 100 288 1.0 5.0 0.00 0.00 0.00 11 1002.2
20190618005305 100 314 1.0 3.0 0.00 0.00 0.00 11 1002.4
20190618004804 101 307 2.0 7.0 0.00 0.00 0.00 11 1002.4
20190618004305 101 295 1.0 3.0 0.00 0.00 0.00 11 1002.1
20190618003804 101 287 2.0 5.0 0.00 0.00 0.00 10 1002.3
20190618003304 101 298 2.0 3.0 0.00 0.00 0.00 10 1002.3
20190618002804 101 315 2.0 8.0 0.00 0.00 0.00 10 1002.1
20190618002304 101 307 1.0 3.0 0.00 0.00 0.00 10 1002.4
20190618001805 101 320 1.0 3.0 0.00 0.00 0.00 10 1002.5
20190618001305 101 302 3.0 9.0 0.00 0.00 0.00 10 1002.2
20190618000804 102 297 2.0 7.0 0.00 0.00 0.00 10 1002.5
20190618000304 102 276 2.0 5.0 0.00 0.00 0.00 10 1002.5
20190617235804 102 241 1.0 6.0 0.00 0.00 0.00 10 1002.3
20190617235304 102 280 2.0 6.0 0.00 0.00 0.00 10 1002.6
20190617234804 102 104 2.0 3.0 0.00 0.00 0.00 9 1002.4
20190617234304 103 222 3.0 6.0 0.00 0.00 0.00 9 1002.6
20190617233804 103 192 1.0 5.0 0.00 0.00 0.00 10 1002.8
20190617233304 103 212 1.0 3.0 0.00 0.00 0.00 9 1002.6
20190617232804 103 244 2.0 6.0 0.00 0.00 0.00 9 1002.7
20190617232304 103 279 3.0 6.0 0.00 0.00 0.00 10 1002.9
20190617231805 103 280 2.0 6.0 0.00 0.00 0.00 9 1002.7
20190617231304 104 259 3.0 7.0 0.00 0.00 0.00 9 1002.9
20190617230805 104 270 1.0 3.0 0.00 0.00 0.00 9 1003.0
20190617230305 104 275 0.0 7.0 0.00 0.00 0.00 9 1002.8
20190617225803 104 252 2.0 3.0 0.00 0.00 0.00 9 1003.0
20190617225303 104 319 1.0 6.0 0.00 0.00 0.00 9 1003.1
20190617224804 104 300 1.0 7.0 0.00 0.00 0.00 9 1002.9
20190617224304 104 139 3.0 6.0 0.00 0.00 0.00 9 1003.2
20190617223804 104 191 2.0 10.0 0.00 0.00 0.00 9 1003.3
20190617223304 104 199 1.0 6.0 0.00 0.00 0.00 9 1003.1
20190617222804 104 115 4.0 10.0 0.00 0.00 0.00 10 1003.4
20190617222304 104 166 4.0 10.0 0.00 0.00 0.00 9 1003.3
20190617221804 104 157 2.0 5.0 0.00 0.00 0.00 9 1003.4
20190617221304 103 155 3.0 9.0 0.00 0.00 0.00 9 1003.6
20190617220804 103 175 0.0 3.0 0.00 0.00 0.00 9 1003.3
20190617220304 103 116 1.0 7.0 0.00 0.00 0.00 9 1003.6
20190617215804 104 255 2.0 12.0 0.00 0.00 0.00 9 1003.7
20190617215305 103 160 2.0 8.0 0.00 0.00 0.00 9 1003.4
20190617214805 104 171 3.0 7.0 0.00 0.00 0.00 9 1003.8
20190617214304 104 133 2.0 5.0 0.00 0.00 0.00 9 1003.6
20190617213804 104 341 1.0 3.0 0.00 0.00 0.00 9 1004.0
20190617213304 104 28 1.0 8.0 0.00 0.00 0.00 9 1003.9
20190617212805 104 102 0.0 2.0 0.00 0.00 0.00 9 1003.9
20190617212308 103 182 2.0 6.0 0.00 0.00 0.00 9 1004.1
20190617211805 104 152 2.0 6.0 0.00 0.00 0.00 9 1003.9
20190617211304 104 174 3.0 7.0 0.00 0.00 0.00 9 1004.2
20190617210805 104 94 0.0 1.0 0.00 0.00 0.00 9 1004.0
20190617210304 103 141 1.0 3.0 0.00 0.00 0.00 9 1004.3
20190617205805 103 77 2.0 3.0 0.00 0.00 0.00 9 1004.2
20190617205304 102 132 1.0 5.0 0.00 0.00 0.00 10 1004.4
20190617204804 102 130 1.0 7.0 0.00 0.00 0.00 10 1004.5
20190617204304 102 142 3.0 8.0 0.00 0.00 0.00 9 1004.3
20190617203804 102 167 3.0 9.0 0.00 0.00 0.00 9 1004.7
20190617203304 102 132 1.0 5.0 0.00 0.00 0.00 10 1004.5
20190617202804 101 168 1.0 5.0 0.00 0.00 0.00 10 1004.9
20190617202305 101 211 3.0 9.0 0.00 0.00 0.00 10 1005.0
20190617201805 102 258 2.0 5.0 0.00 0.00 0.00 10 1004.7
20190617201304 101 164 3.0 7.0 0.00 0.00 0.00 10 1005.1
20190617200804 102 149 2.0 6.0 0.00 0.00 0.00 10 1004.9
20190617200304 101 247 2.0 5.0 0.00 0.00 0.00 10 1005.2
20190617195804 101 211 2.0 6.0 0.00 0.00 0.00 10 1005.1
20190617195304 100 142 1.0 3.0 0.00 0.00 0.00 10 1005.4
20190617194804 100 196 3.0 8.0 0.00 0.00 0.00 10 1005.5
20190617194305 100 169 4.0 8.0 0.00 0.00 0.00 10 1005.3
20190617193805 100 126 3.0 7.0 0.00 0.00 0.00 10 1005.7
20190617193304 99 140 3.0 9.0 0.00 0.00 0.00 11 1005.6
20190617192804 99 130 3.0 7.0 0.00 0.00 0.00 11 1005.8
20190617192304 99 121 4.0 7.0 0.00 0.00 0.00 11 1005.8
20190617191804 99 99 3.0 6.0 0.00 0.00 0.00 11 1005.8
20190617191305 100 115 3.0 8.0 0.00 0.00 0.00 10 1006.2
20190617190804 99 229 2.0 7.0 0.00 0.00 0.00 11 1005.9
20190617190305 99 223 2.0 9.0 0.00 0.00 0.00 11 1006.2
20190617185805 99 209 3.0 7.0 0.00 0.00 0.00 10 1006.0
20190617185304 98 115 1.0 7.0 0.00 0.00 0.00 11 1006.1
20190617184805 99 189 3.0 8.0 0.00 0.00 0.00 10 1006.4
20190617184305 98 167 1.0 5.0 0.00 0.00 0.00 11 1006.1
20190617183804 98 256 1.0 7.0 0.00 0.00 0.00 11 1006.4
20190617183305 97 154 2.0 7.0 0.00 0.00 0.00 11 1006.2
20190617182805 97 115 3.0 6.0 0.00 0.00 0.00 10 1006.4
20190617182304 96 142 2.0 7.0 0.00 0.00 0.00 11 1006.4
20190617181804 96 123 4.0 12.0 0.00 0.00 0.00 10 1006.2
20190617181304 96 201 3.0 6.0 0.00 0.00 0.00 10 1006.5
20190617180804 96 119 3.0 7.0 0.00 0.00 0.00 10 1006.3
20190617180305 97 115 3.0 6.0 0.00 0.00 0.00 11 1006.6
20190617175804 97 97 2.0 7.0 0.00 0.00 0.00 11 1006.4
20190617175305 97 118 1.0 3.0 0.00 0.00 0.00 10 1006.4
20190617174805 97 108 3.0 6.0 0.00 0.00 0.00 11 1006.6
20190617174304 96 176 0.0 3.0 0.00 0.00 0.00 11 1006.4
20190617173805 96 179 2.0 6.0 0.00 0.00 0.00 11 1006.7
20190617173305 96 105 1.0 3.0 0.00 0.00 0.00 13 1006.5
20190617172804 95 153 0.0 2.0 0.00 0.00 0.00 12 1006.5
20190617172304 95 112 2.0 5.0 0.00 0.00 0.00 12 1006.8
20190617171808 94 125 0.0 5.0 0.00 0.00 0.00 14 1006.5